ASL45X LFPG-LYBE

Flight info

Callsign ASL45X
Flight time N/A
Altitude 35000
Route LANVI DCT BEGAR DCT TRA DCT GAMSA DCT UMVEG DCT KFT DCT BEDOX DCT LAKIK DCT RIGMU
Aircraft A320/M-SDE3FGHIRWY/LB1

Departure

Time 2026-05-01 14:34
Airport Charles de Gaulle International Airport (LFPG)

Arrival

Time N/A
Airport Belgrade Nikola Tesla Airport (LYBE)
Time Latitude Longitude Altitude Speed Heading
2026-05-01 14:10 49.00520 2.56054 354 ft 0 kts 159°
2026-05-01 14:21 49.00530 2.56048 358 ft 2 kts 159°
2026-05-01 14:21 49.00546 2.56038 354 ft 3 kts 177°
2026-05-01 14:22 49.00578 2.56058 359 ft 3 kts 240°
2026-05-01 14:22 49.00582 2.56068 360 ft 0 kts 254°
2026-05-01 14:22 49.00583 2.56072 360 ft 2 kts 254°
2026-05-01 14:22 49.00583 2.56075 360 ft 0 kts 254°
2026-05-01 14:28 49.00582 2.56067 354 ft 3 kts 257°
2026-05-01 14:28 49.00578 2.56015 362 ft 6 kts 264°
2026-05-01 14:28 49.00573 2.55939 354 ft 8 kts 264°
2026-05-01 14:29 49.00567 2.55841 358 ft 10 kts 265°
2026-05-01 14:29 49.00561 2.55722 354 ft 12 kts 265°
2026-05-01 14:30 49.00469 2.55332 354 ft 13 kts 188°
2026-05-01 14:30 49.00375 2.55361 354 ft 15 kts 164°
2026-05-01 14:30 49.00270 2.55406 357 ft 17 kts 164°
2026-05-01 14:31 49.00017 2.55516 357 ft 21 kts 164°
2026-05-01 14:31 48.99899 2.55582 356 ft 16 kts 145°
2026-05-01 14:31 48.99841 2.55709 354 ft 12 kts 109°
2026-05-01 14:31 48.99835 2.55740 354 ft 4 kts 107°
2026-05-01 14:32 48.99810 2.55795 357 ft 8 kts 148°
2026-05-01 14:32 48.99739 2.55809 357 ft 12 kts 175°
2026-05-01 14:32 48.99641 2.55822 355 ft 12 kts 175°
2026-05-01 14:32 48.99602 2.55869 355 ft 7 kts 91°
2026-05-01 14:33 48.99603 2.55883 353 ft 0 kts 85°
2026-05-01 14:33 48.99609 2.55994 354 ft 40 kts 85°
2026-05-01 14:33 48.99650 2.56767 355 ft 104 kts 85°
2026-05-01 14:34 48.99723 2.58134 360 ft 153 kts 85°
2026-05-01 14:34 48.99821 2.59821 775 ft 161 kts 88°
2026-05-01 14:34 48.99910 2.61512 1370 ft 160 kts 88°
2026-05-01 14:34 48.99997 2.63199 1913 ft 160 kts 88°
2026-05-01 14:35 49.00087 2.64952 2276 ft 176 kts 88°
2026-05-01 14:35 49.00187 2.66933 2552 ft 199 kts 88°
2026-05-01 14:35 49.00300 2.69169 2855 ft 224 kts 87°
2026-05-01 14:35 49.00428 2.71698 3290 ft 249 kts 87°
2026-05-01 14:36 49.00568 2.74422 3892 ft 264 kts 87°
2026-05-01 14:36 49.00707 2.77232 4775 ft 268 kts 90°
2026-05-01 14:36 49.00529 2.80072 5644 ft 271 kts 101°
2026-05-01 14:36 49.00232 2.82918 6553 ft 273 kts 101°
2026-05-01 14:37 48.99928 2.85748 7381 ft 276 kts 101°
2026-05-01 14:37 48.99608 2.88691 8229 ft 280 kts 101°
2026-05-01 14:37 48.99294 2.91585 9053 ft 282 kts 102°
2026-05-01 14:37 48.98972 2.94590 9899 ft 286 kts 102°
2026-05-01 14:38 48.98664 2.97609 10544 ft 295 kts 101°
2026-05-01 14:38 48.98378 3.00826 10763 ft 318 kts 99°
2026-05-01 14:38 48.98093 3.04290 10927 ft 341 kts 99°
2026-05-01 14:38 48.97796 3.07987 11155 ft 360 kts 99°
2026-05-01 14:39 48.97491 3.11801 11727 ft 366 kts 99°
2026-05-01 14:39 48.97181 3.15657 12400 ft 369 kts 99°
2026-05-01 14:39 48.96864 3.19547 13085 ft 371 kts 99°
2026-05-01 14:39 48.96538 3.23450 13765 ft 374 kts 100°
2026-05-01 14:40 48.96204 3.27392 14404 ft 376 kts 100°
2026-05-01 14:40 48.95863 3.31352 14987 ft 379 kts 100°
2026-05-01 14:40 48.95517 3.35342 15555 ft 382 kts 100°